This is the latest recevied weather packets stored in our database for station/object EA1AY-13. If no packets are shown the sender has not sent any weather packets the latest 10 day(s).
| Time | Temp. | Humidity | Pressure | Rain* | Wind** | Luminosity | Snow |
|---|---|---|---|---|---|---|---|
| 1777426217 | 13.89° C | 71% | 1012.1 hPa | 0 mm | - | - | - |
| 1777419616 | 14.44° C | 67% | 1013.1 hPa | 0 mm | - | - | - |
| 1777419016 | 14.44° C | 66% | 1013.1 hPa | 0 mm | - | - | - |
| 1777418416 | 14.44° C | 67% | 1013.2 hPa | 0 mm | - | - | - |
| 1777416016 | 14.44° C | 69% | 1013.5 hPa | 0 mm | - | - | - |
| 1777414216 | 15° C | 71% | 1013.7 hPa | 0 mm | - | - | - |
| 1777411217 | 15° C | 64% | 1013.9 hPa | 0 mm | - | - | - |
| 1777409417 | 15° C | 60% | 1013.9 hPa | 0 mm | - | - | - |
| 1777408858 | 15° C | 63% | 1013.8 hPa | 0 mm | - | - | - |
| 1777405217 | 15.56° C | 70% | 1013.5 hPa | 0 mm | - | - | - |
| 1777402217 | 16.11° C | 74% | - | 0 mm | - | - | - |
| 1777392617 | 18.89° C | 77% | - | 0 mm | - | - | - |
| 1777389017 | 18.33° C | 79% | - | 0 mm | - | - | - |
| 1777387817 | 18.89° C | 78% | - | 0 mm | - | - | - |
| 1777387217 | 18.89° C | 79% | - | 0 mm | - | - | - |
| 1777386617 | 18.89° C | 79% | - | 0 mm | - | - | - |
| 1777377616 | 18.33° C | 79% | - | 0 mm | - | - | - |
| 1777375838 | 17.22° C | 78% | - | 0 mm | - | - | - |
| 1777374017 | 16.67° C | 76% | - | 0 mm | - | - | - |
| 1777372216 | 16.11° C | 67% | - | 0 mm | - | - | - |
| 1777370417 | 15.56° C | 58% | - | 0 mm | - | - | - |
| 1777368016 | 15.56° C | 52% | - | 0 mm | - | - | - |
| 1777362016 | 15° C | 37% | - | 0 mm | - | - | - |
| 1777360216 | - | - | - | 0 mm | - | - | - |
| 1777357816 | - | - | - | 0 mm | - | - | - |
* Rain latest hour (hover to see other rain measurements)
** Current wind speed in m/s (hover to see current wind gust speed)